Pittsburgh, PA

12:53 PM EST on December 12, 2019 (GMT -0500)
Pittsburgh International

Weather History for KPIT - October, 2019

Change the Weather History Date:

Friday, October 4, 2019

  Actual Average Record
Temperature  
Mean Temperature 56 °F 57 °F  
Max Temperature 64 °F 67 °F 90 °F (1884)
Min Temperature 46 °F 47 °F 31 °F (1974)
Degree Days  
Heating Degree Days 9 9  
Month to date heating degree days 10 34  
Since 1 July heating degree days 18 148  
Cooling Degree Days 0 1  
Month to date cooling degree days 37 4  
Year to date cooling degree days 934 732  
Growing Degree Days 6 (Base 50)    
Moisture  
Dew Point 48 °F    
Average Humidity 69    
Maximum Humidity 81    
Minimum Humidity 54    
Precipitation  
Precipitation 0.00 in 0.07 in 1.49 in (1954)
Month to date precipitation 0.48 0.29  
Year to date precipitation 40.57 30.11  
Snow  
Snow 0.00 in 0.00 in 0.00 in (2001)
Month to date snowfall 0.0 0.0  
Snow Depth 0.00 in    
Sea Level Pressure  
Sea Level Pressure 30.21 in    
Wind  
Wind Speed 9 mph ()    
Max Wind Speed 22 mph    
Max Gust Speed 26 mph    
Visibility 10.0 miles    
Events      
T = Trace of Precipitation, MM = Missing Value Source: Averaged Metar Reports

Daily Weather History Graph

Daily Weather History Graph

Search for Another Location

Airport or City:

Astronomy

Oct. 04, 2019 Rise Set
Actual Time 7:20 AM EDT 6:58 PM EDT
Civil Twilight 6:52 AM EDT 7:25 PM EDT
Nautical Twilight 6:21 AM EDT 7:57 PM EDT
Astronomical Twilight 5:49 AM EDT 8:29 PM EDT
Moon 1:51 PM EDT (10/4) 11:24 PM EDT (10/4)
Length of Visible Light 12h 32m
Length of Day
11h 38m
Waxing Crescent, 39% of the Moon is Illuminated
Oct 4
Waxing Crescent
Oct 5
First Quarter
Oct 13
Full
Oct 21
Last Quarter
Oct 27
New

Hourly Weather History & Observations

Time (EDT) Temp. Dew Point Humidity Pressure Visibility Wind Dir Wind Speed Gust Speed Precip Events Conditions
12:04 AM 66.0 °F 59.0 °F 78% 30.05 in 10.0 mi NNW 10.4 mph - N/A   Scattered Clouds
12:51 AM 64.0 °F 57.9 °F 80% 30.05 in 10.0 mi NNW 10.4 mph - N/A   Partly Cloudy
1:51 AM 63.0 °F 55.0 °F 75% 30.07 in 10.0 mi NNW 17.3 mph - N/A   Scattered Clouds
2:51 AM 60.1 °F 51.1 °F 72% 30.09 in 10.0 mi NW 12.7 mph - N/A   Partly Cloudy
3:51 AM 57.9 °F 51.1 °F 78% 30.10 in 10.0 mi NW 8.1 mph - N/A   Partly Cloudy
4:51 AM 57.0 °F 51.1 °F 81% 30.11 in 10.0 mi NW 8.1 mph - N/A   Partly Cloudy
5:16 AM 57.9 °F 51.1 °F 78% 30.12 in 10.0 mi NW 8.1 mph - N/A   Mostly Cloudy
5:51 AM 57.0 °F 51.1 °F 81% 30.13 in 10.0 mi NNW 8.1 mph - N/A   Mostly Cloudy
6:18 AM 57.0 °F 50.0 °F 77% 30.14 in 10.0 mi NNW 10.4 mph - N/A   Mostly Cloudy
6:51 AM 55.9 °F 48.9 °F 77% 30.16 in 10.0 mi NW 8.1 mph - N/A   Mostly Cloudy
7:51 AM 55.9 °F 48.0 °F 75% 30.19 in 10.0 mi NNW 8.1 mph - N/A   Mostly Cloudy
8:51 AM 57.9 °F 48.9 °F 72% 30.21 in 10.0 mi NW 8.1 mph - N/A   Mostly Cloudy
9:51 AM 60.1 °F 46.9 °F 62% 30.23 in 10.0 mi NW 15.0 mph - N/A   Mostly Cloudy
10:51 AM 60.1 °F 45.0 °F 57% 30.24 in 10.0 mi NNW 12.7 mph - N/A   Mostly Cloudy
11:51 AM 63.0 °F 46.9 °F 56% 30.25 in 10.0 mi NNW 8.1 mph - N/A   Mostly Cloudy
12:51 PM 63.0 °F 46.9 °F 56% 30.25 in 10.0 mi North 8.1 mph - N/A   Mostly Cloudy
1:51 PM 60.1 °F 48.0 °F 64% 30.27 in 10.0 mi NNE 16.1 mph 26.5 mph N/A   Mostly Cloudy
2:51 PM 61.0 °F 48.0 °F 62% 30.26 in 10.0 mi North 12.7 mph - N/A   Mostly Cloudy
3:51 PM 63.0 °F 46.0 °F 54% 30.26 in 10.0 mi NNE 10.4 mph - N/A   Scattered Clouds
4:51 PM 62.1 °F 46.0 °F 56% 30.27 in 10.0 mi North 13.8 mph - N/A   Mostly Cloudy
5:51 PM 60.1 °F 45.0 °F 57% 30.27 in 10.0 mi NNE 12.7 mph - N/A   Mostly Cloudy
6:51 PM 55.9 °F 43.0 °F 62% 30.30 in 10.0 mi NNE 11.5 mph - N/A   Partly Cloudy
7:51 PM 54.0 °F 43.0 °F 66% 30.31 in 10.0 mi North 10.4 mph - N/A   Partly Cloudy
8:51 PM 52.0 °F 43.0 °F 71% 30.32 in 10.0 mi NNE 8.1 mph - N/A   Scattered Clouds
9:51 PM 50.0 °F 42.1 °F 74% 30.35 in 10.0 mi NNE 8.1 mph - N/A   Scattered Clouds
10:51 PM 48.9 °F 42.1 °F 77% 30.35 in 10.0 mi ENE 6.9 mph - N/A   Mostly Cloudy
11:51 PM 48.0 °F 39.9 °F 74% 30.36 in 10.0 mi ENE 8.1 mph - N/A   Mostly Cloudy